SUSQUEDA - VEÏNAT DEL COLL (La Selva)





Hora UTC 03:10
Temperatura 14.4 ºC
Humitat 73.5 %
Pressió 1015.3 hPa
Pluja 0.0 mm
Velocitat vent 4.6 km/h
Direcció vent SSE
Radiació solar 0.2 W/m²

Dades diàries 2024-05-30



Hora UTC (hivern +1h; estiu +2h)
Temperatura (ºC) Humitat (%) Pressió (hPa) Velocitat vent (km/h) Precipitació (mm) Radiació solar (W/m²)
Hora UTC Aire Humitat Pressió Vel. Dir. Vel. Max Dir. Intent. màx 5 min. Rad. Sol.
00:05 15.2 77.2 1016.8 7.4 SSE 7.4 SSE 0.0 0.2
00:10 15.2 77.3 1016.8 6.0 SSE 11.3 SE 0.0 0.1
00:15 15.2 77.1 1016.8 6.0 SSE 9.9 SE 0.0 0.1
00:20 15.2 76.5 1016.8 5.6 SSE 9.9 SE 0.0 0.2
00:25 15.1 76.2 1016.8 6.2 SSE 11.3 SE 0.0 0.1
00:30 15.1 76.4 1016.8 5.4 SSE 10.6 SE 0.0 0.2
00:35 15.0 76.3 1016.7 5.9 SSE 8.5 SE 0.0 0.2
00:40 15.0 76.1 1016.7 5.8 SSE 8.8 SE 0.0 0.1
00:45 14.9 76.1 1016.6 5.9 SSE 9.2 S 0.0 0.1
00:50 14.9 76.3 1016.6 6.9 SSE 11.6 SSE 0.0 0.2
00:55 15.0 76.1 1016.5 6.3 SSE 12.7 SSE 0.0 0.2
01:00 15.0 76.1 1016.5 6.8 SSE 13.1 SSE 0.0 0.2
01:05 15.0 76.2 1016.5 6.9 SSE 12.7 SSE 0.0 0.2
01:10 15.1 76.1 1016.5 8.2 SSE 13.8 S 0.0 0.1
01:15 15.0 76.2 1016.4 7.7 SSE 12.7 SE 0.0 0.1
01:20 15.0 75.8 1016.4 8.0 SSE 13.4 SSE 0.0 0.2
01:25 14.9 75.6 1016.2 7.9 SSE 14.1 SSE 0.0 0.1
01:30 14.9 75.5 1016.2 8.9 SSE 15.5 SSE 0.0 0.2
01:35 14.9 75.3 1016.1 9.4 SSE 14.5 SSE 0.0 0.1
01:40 14.9 75.1 1016.1 9.1 SSE 14.5 SSE 0.0 0.1
01:45 15.0 75.1 1016.1 10.0 SSE 15.2 S 0.0 0.1
01:50 14.9 75.0 1016.1 9.7 SSE 14.8 SSE 0.0 0.1
01:55 14.9 73.5 1015.9 9.2 SSE 17.3 SSE 0.0 0.1
02:00 15.0 72.4 1015.9 9.3 SSE 14.8 SSE 0.0 0.1
02:05 14.9 73.1 1015.8 8.9 SSE 14.1 SSE 0.0 0.1
02:10 14.9 73.8 1015.8 7.3 SSE 13.8 S 0.0 0.2
02:15 14.8 73.3 1015.8 8.0 SSE 13.8 SSE 0.0 0.1
02:20 14.9 73.2 1015.8 7.7 SSE 13.1 SSE 0.0 0.1
02:25 14.9 72.8 1015.8 8.2 SSE 12.4 S 0.0 0.2
02:30 14.8 72.7 1015.8 7.4 SSE 12.0 SSE 0.0 0.2
02:35 14.8 72.2 1015.6 6.8 SSE 11.3 SSE 0.0 0.1
02:40 14.8 72.2 1015.6 6.6 SSE 12.0 S 0.0 0.2
02:45 14.7 72.4 1015.5 6.8 SSE 12.0 SSE 0.0 0.1
02:50 14.7 72.4 1015.5 6.1 SSE 9.9 SSE 0.0 0.2
02:55 14.6 73.1 1015.4 6.1 SSE 9.2 SE 0.0 0.1
03:00 14.5 73.5 1015.4 5.3 SSE 8.8 SSE 0.0 0.2
03:05 14.4 73.4 1015.3 5.6 SSE 10.2 SSE 0.0 0.1
03:10 14.4 73.5 1015.3 4.6 SSE 8.1 SSE 0.0 0.2
Màxima 15.7 77.3 1016.8 10.0 SSE 17.3 SSE 0.0 0.2
Mínima 14.3 72.2 1015.3
Total 0.0